Simultaneous Nadir Overpasses (SNOs) Predictions

Prediction of SNOs between GOES-15 and METOP-B Satellite Orbit:

Table of predicted SNOs for the next 14.0 days since TLE Epoch: 6/17/2023
Index Date Time (GOES-15) GOES-15 Lat,Lon METOP-B Lat,Lon Distance(km) Time Diff (sec)
1 06/18/2023 08:28:22 0.23,-162.42 -0.20,-164.35 219.70 80
2 06/19/2023 08:05:05 0.26,-162.81 1.05,-159.39 390.95 80
3 06/20/2023 20:26:37 -0.24,-163.42 -0.11,-163.97 62.21 80
4 06/23/2023 08:22:21 0.24,-164.39 0.44,-163.62 87.99 80
5 06/24/2023 20:43:53 -0.21,-164.99 0.49,-168.20 365.71 80
6 06/25/2023 20:20:35 -0.24,-165.37 -0.71,-163.23 244.31 80
7 06/27/2023 08:42:16 0.21,-165.95 -0.21,-167.85 216.23 80
8 06/28/2023 08:18:57 0.24,-166.33 0.99,-162.87 393.27 80
9 06/29/2023 20:40:30 -0.20,-166.92 -0.07,-167.45 61.76 80
